Tracking 29747 objects as of 10-Oct-2024
HD Live streaming from Space Station
objects crossing your sky now

DELTA 1 DEB

Track DELTA 1 DEB now!
10-day predictions


NORAD ID: 21339
Int'l Code: 1975-052BH
Perigee: 1,085.9 km
Apogee: 1,662.0 km
Inclination: 99.6 °
Period: 113.1 minutes
Semi major axis: 7744 km
RCS: 0.0936 m2 (small)
Launch date: June 12, 1975
Source: United States (US)
Launch site: AIR FORCE WESTERN TEST RANGE (AFWTR)

Note: This is SATELLITE DEBRIS
Your satellite tracking list
Your tracking list is empty




NASA's NSSDC Master Catalog

Two Line Element Set (TLE):
1 21339U 75052BH  24283.62821407  .00000209  00000-0  87051-3 0  9991
2 21339  99.5633 148.7280 0371929 132.7820 290.8847 12.73729582551666
Source of the keplerian elements: AFSPC